Regional Weather Roundup
Issued by NWS

Home | Current Version | Previous Version | Text Only | Print | Product List | Glossary Off
Versions: 1 2 3 4 5 6 7 8 9 10 11 12 13 14 15 16 17 18 19 20 21 22 23 24 25 26 27 28 29 30 31 32 33 34 35 36 37 38 39 40 41 42 43 44 45 46 47 48 49 50

741
ASUS44 KLIX 220010
RWRLA
LOUISIANA WEATHER ROUNDUP
NATIONAL WEATHER SERVICE NEW ORLEANS LA
600 PM CST FRI NOV 21 2014

NOTE: "FAIR" INDICATES FEW OR NO CLOUDS BELOW 12,000 FEET WITH NO
      SIGNIFICANT WEATHER AND/OR OBSTRUCTIONS TO VISIBILITY.
      SKY/WX - SKY CONDITION AND SIGNIFICANT WEATHER.
      TMP - AIR TEMPERATURE.    DP   - DEWPOINT TEMPERATURE.
      RH  - RELATIVE HUMIDITY.  PRES - PRESSURE.
      HX  - HEAT INDEX.         WCI  - WIND CHILL INDEX.

*  THESE STATIONS ARE NOT NWS OR FAA STATIONS AND ARE NOT UNDER
   NWS QUALITY CONTROL.

LAZ040-048-061>063-065-066-069-220100-
SOUTHEAST LOUISIANA

CITY           SKY/WX    TMP DP  RH WIND       PRES   REMARKS
N.O. AUDUBON     N/A     61  56  83 MISG        N/A
6HR MIN TEMP:  61; 6HR MAX TEMP:  71;

N.O. INTL ARPT PTCLDY    61  53  75 E10       30.26S
6HR MIN TEMP:  61; 6HR MAX TEMP:  71;

N.O. LAKEFRONT CLEAR     59  52  77 E12       30.27S
6HR MIN TEMP:  59; 6HR MAX TEMP:  68;

N.O. DOWNTOWN* FAIR      61  50  67 NE5       30.27S
6HR MIN TEMP:  61; 6HR MAX TEMP:  68;

SLIDELL        CLEAR     60  49  66 E3        30.28R
6HR MIN TEMP:  60; 6HR MAX TEMP:  70;

BATON ROUGE    MOCLDY    63  51  65 E14       30.25R
6HR MIN TEMP:  63; 6HR MAX TEMP:  72;

BOOTHVILLE     CLEAR     62  52  69 E9        30.26S
6HR MIN TEMP:  62; 6HR MAX TEMP:  69;

BELLE CHASSE   PTCLDY    59  52  77 E8        30.26S
6HR MIN TEMP:  58; 6HR MAX TEMP:  71;

BOGALUSA*        N/A     62  42  47 SE5       30.29S
6HR MIN TEMP:  62; 6HR MAX TEMP:  75;

NEW ROADS*     CLOUDY    64  49  59 E8        30.24R
6HR MIN TEMP:  64; 6HR MAX TEMP:  72;

GONZALES*      FAIR      62  55  78 E6        30.24F
6HR MIN TEMP:  62; 6HR MAX TEMP:  71;

HAMMOND*       CLEAR     61  50  67 SE6       30.28S
HOUMA*         CLEAR     59  50  72 E12       30.25R
PORT FOURCHON* PTCLDY    66  52  59 E13G20    30.26S

$$

LAZ041-044-053-054-220100-
SOUTHWEST LOUISIANA

CITY           SKY/WX    TMP DP  RH WIND       PRES   REMARKS
LAKE CHARLES   MOCLDY    63  53  70 SE14      30.18S
6HR MIN TEMP:  63; 6HR MAX TEMP:  71;

LAFAYETTE      MOCLDY    65  44  46 VRB5      30.22R
6HR MIN TEMP:  65; 6HR MAX TEMP:  72;

PATTERSON      CLEAR     61  50  67 E6        30.25S
6HR MIN TEMP:  61; 6HR MAX TEMP:  72;

SALT POINT       N/A     63  52  67 E3        30.22R
6HR MIN TEMP:  63; 6HR MAX TEMP:  71;

NEW IBERIA     PTCLDY    62  48  60 SE7       30.23R
6HR MIN TEMP:  62; 6HR MAX TEMP:  74;

CHENAULT AIRPK NOT AVBL

$$

LAZ027-028-220100-
CENTRAL LOUISIANA

CITY           SKY/WX    TMP DP  RH WIND       PRES   REMARKS
FORT POLK      CLOUDY    63  51  64 SE6       30.18R
6HR MIN TEMP:  63; 6HR MAX TEMP:  68; 6HR PCP: TRACE;

ALEXANDRIA INT MOCLDY    63  49  60 SE7       30.19S
6HR MIN TEMP:  62; 6HR MAX TEMP:  73; 6HR PCP: TRACE;

ALEXANDRIA     CLOUDY    66  44  45 SE7       30.21R
6HR MIN TEMP:  65; 6HR MAX TEMP:  74; 6HR PCP: TRACE;


$$

LAZ001-002-220100-
NORTHWEST LOUISIANA

CITY           SKY/WX    TMP DP  RH WIND       PRES   REMARKS
SHREVEPORT     LGT RAIN  61  55  81 SE12G18   30.17F
6HR MIN TEMP:  59; 6HR MAX TEMP:  61; 6HR PCP:  0.10;

BARKSDALE AFB  MOCLDY    58  58 100 E5        30.19R
6HR MIN TEMP:  56; 6HR MAX TEMP:  60; 6HR PCP:  0.03;

DTN SHREVEPORT CLOUDY    58  55  90 SE3       30.19R
6HR MIN TEMP:  57; 6HR MAX TEMP:  60; 6HR PCP:  0.05;


$$

LAZ014-016-220100-
NORTHEAST LOUISIANA

CITY           SKY/WX    TMP DP  RH WIND       PRES   REMARKS
MONROE         CLOUDY    64  47  53 CALM      30.24R
6HR MIN TEMP:  64; 6HR MAX TEMP:  68;

TALLULAH       PTCLDY    60  49  66 SE5       30.24S
6HR MIN TEMP:  59; 6HR MAX TEMP:  72;


$$




USA.gov is the U.S. government's official web portal to all federal, state and local government web resources and services.